{"data":{"norad_id":52656,"epoch":"2026-09-20T05:10:35.058720Z","epoch_age_seconds":91019,"freshness":"FRESH","line1":"1 52656U 22053A   26263.21568355  .00000567  00000+0  27158-4 0  9994","line2":"2 52656  53.1608 348.7442 0001274  77.6446 282.4699 15.35395689240649","mean_motion":15.35395689,"eccentricity":0.0001274,"inclination_deg":53.1608,"raan_deg":348.7442,"arg_perigee_deg":77.6446,"mean_anomaly_deg":282.4699,"bstar":2.7158e-5,"rev_number":24064,"period_min":93.786898733438,"perigee_km":458.8742958428,"apogee_km":460.61658828904,"semimajor_km":6837.8824420659,"source":"CELESTRAK","updated_at":"2026-09-20T09:00:40.100000Z"}}